Temp
29 30 29 29 30 30 30 30 30 32 32 33 34 34 36 36 37 38 39 39 39 40 41 41 41 42 41 41 41 41 41 40 38 36 37 37 36 37 37 39 38 37 37
27 27 27 27 27 27 27 27 29 28 30 32 33 33 33 35 36 36 36 37 37 37 38 39 40 41 41 41 40 40 40 40 38 34 34 34 34 35 35 35 35 35 35
25 24 24 24 23 22 21 24 25 26 27 29 30 31 32 32 34 36 36 36 36 36 37 37 38 40 39 39 39 39 39 39 37 34 33 33 32 33 32 32 33 33 34
23 21 20 20 20 19 18 18 19 22 24 25 27 28 30 31 34 34 35 34 35 35 36 37 37 37 38 39 39 38 38 35 35 34 33 32 33 32 33 32 32 32 33
18 15 13 15 16 15 14 15 16 18 21 22 24 26 28 32 35 36 35 33 33 33 34 35 37 35 36 38 39 37 38 34 33 33 32 33 33 32 32 33 32 32 32
12 8 10 12 12 12 12 12 13 15 18 20 21 24 26 31 35 37 36 33 32 32 32 34 35 35 36 38 39 40 39 36 34 33 33 33 33 33 33 33 32 31 31
7 6 7 9 9 10 10 10 11 13 16 17 20 23 24 28 34 36 36 33 32 30 32 32 33 34 34 35 37 39 39 40 40 36 33 33 33 33 33 32 32 32 32
3 3 5 5 6 9 8 9 10 14 15 17 18 21 23 26 32 34 35 32 32 31 31 33 33 33 34 35 34 35 35 35 35 35 34 34 34 34 34 34 33 32 31
2 3 5 4 5 5 6 7 10 13 15 17 20 20 21 23 30 34 34 31 31 30 31 30 33 33 36 38 34 33 33 33 37 38 37 37 39 37 35 33 31 31 29
4 6 5 5 5 4 7 9 12 14 16 19 19 20 20 22 28 33 34 32 30 30 29 30 32 34 37 38 34 33 32 32 32 32 32 33 33 34 35 34 33 31 30
7 7 6 6 7 9 10 11 12 13 15 15 17 19 21 22 23 31 33 31 30 30 31 29 30 35 36 38 37 33 33 33 33 31 31 31 31 31 31 32 32 33 31
7 7 6 6 9 10 10 11 12 13 13 13 14 17 19 21 23 27 30 32 33 29 29 30 29 35 35 36 36 37 38 33 31 30 30 29 28 28 29 29 29 29 30
3 2 4 7 9 9 9 9 10 10 10 11 12 13 15 19 21 25 27 29 30 29 30 32 33 33 33 32 35 36 32 32 31 30 30 28 28 28 28 28 28 27 27
-0 2 6 6 6 7 9 10 9 9 8 10 12 12 14 16 18 21 24 26 27 28 30 27 29 31 31 30 30 32 31 31 31 31 29 27 27 28 28 28 28 28 28
1 3 4 5 4 5 7 7 9 11 13 12 12 14 13 13 17 23 25 24 25 28 29 28 25 24 25 25 26 29 30 30 30 30 28 27 26 26 26 27 28 28 27
0 2 2 3 3 4 4 4 10 13 15 17 18 17 17 19 21 22 23 25 27 29 25 24 25 24 22 23 25 26 29 30 30 29 28 27 26 25 25 26 27 27 27
-6 -1 0 1 2 2 2 2 0 6 11 13 15 16 17 18 19 20 21 23 25 25 20 19 24 26 22 22 24 26 27 28 29 30 28 26 26 25 25 25 26 26 25
-11 -5 -2 -0 -0 0 1 1 1 -1 -1 2 8 12 14 15 16 18 19 18 10 11 12 15 19 22 25 20 22 23 28 30 30 28 27 26 25 25 24 24 25 26 25
-7 -3 -4 -3 -2 -1 -1 0 0 -0 -1 -1 1 6 6 11 13 14 15 5 3 4 7 10 16 19 20 19 21 22 22 26 27 28 28 26 25 25 24 24 23 21 24
-13 -9 -4 -6 -5 -5 -4 -5 -3 -3 -3 -2 -1 -0 2 0 0 -1 2 1 2 3 6 8 13 16 19 17 16 19 20 23 25 29 28 28 26 25 25 24 24 23 23
-13 -14 -10 -10 -12 -10 -9 -8 -6 -6 -4 -3 -1 2 14 7 2 0 -1 -1 0 2 4 5 7 10 13 15 14 17 17 22 23 26 30 29 26 25 25 25 25 24 22
-16 -15 -17 -15 -13 -12 -11 -10 -9 -9 -7 -5 -2 0 10 0 -0 -2 -2 -1 -1 0 1 2 4 8 11 12 14 16 16 18 19 21 26 29 27 26 26 25 24 24 21
-15 -14 -15 -15 -15 -13 -12 -12 -11 -10 -8 -6 -4 -3 -2 -2 -3 -2 -2 -1 -1 -1 2 -0 1 4 9 11 14 13 13 16 18 19 22 29 28 27 26 25 24 23 21
-15 -15 -14 -13 -16 -14 -13 -10 -8 -9 -8 -6 -6 -4 -3 -2 -2 -1 -1 -1 -1 -1 -1 -0 -0 0 4 8 11 13 12 14 19 22 25 28 28 27 26 25 25 24 22
-18 -17 -16 -13 -13 -12 -13 -12 -10 -9 -8 -6 -4 -3 -1 -2 -2 -1 -1 -2 -3 -1 -1 -0 1 1 3 5 8 9 11 15 13 16 24 27 30 27 27 25 25 24 22
-17 -16 -14 -14 -15 -14 -13 -10 -9 -9 -8 -5 -4 -3 -1 -0 1 1 1 -1 -3 -2 -1 -1 0 0 1 4 5 8 8 16 17 15 20 24 28 28 27 25 24 24 22
MSLP
1033.77 1033.20 1032.54 1032.01 1031.46 1031.05 1030.47 1029.97 1029.44 1028.76 1027.96 1027.38 1026.80 1026.05 1025.17 1024.37 1023.77 1023.07 1022.67 1021.99 1021.39 1020.76 1020.57 1020.16 1019.77 1019.60 1019.69 1019.93 1020.04 1020.08 1020.39 1020.66 1021.02 1021.61 1021.92 1022.38 1022.59 1022.67 1023.08 1023.06 1023.28 1023.35 1023.49
1034.73 1034.14 1033.62 1032.97 1032.27 1031.75 1031.32 1030.72 1030.05 1029.31 1028.56 1027.92 1027.16 1026.55 1026.00 1025.39 1024.56 1024.08 1023.49 1022.76 1022.10 1021.48 1021.01 1020.38 1019.90 1019.73 1019.75 1019.87 1020.08 1020.21 1020.37 1020.60 1020.90 1021.45 1022.03 1022.37 1022.68 1022.78 1023.04 1023.10 1023.29 1023.35 1023.60
1035.37 1034.89 1034.46 1033.84 1033.25 1032.79 1032.31 1031.59 1030.68 1029.85 1029.05 1028.43 1027.80 1027.16 1026.41 1026.02 1025.33 1024.75 1024.13 1023.47 1022.76 1022.19 1021.41 1020.98 1020.43 1019.94 1019.87 1019.98 1019.95 1020.27 1020.41 1020.64 1020.90 1021.32 1021.80 1022.53 1022.88 1022.86 1023.28 1023.30 1023.33 1023.30 1023.27
1036.05 1035.64 1035.20 1034.70 1034.23 1033.73 1033.18 1032.54 1031.67 1030.78 1029.85 1029.00 1028.41 1027.83 1027.07 1026.39 1025.80 1025.04 1024.26 1023.70 1023.18 1022.59 1022.00 1021.43 1020.99 1020.57 1020.22 1020.11 1020.04 1020.27 1020.44 1020.76 1020.91 1021.11 1021.76 1022.35 1022.56 1022.74 1022.98 1022.85 1023.04 1023.10 1023.06
1036.70 1036.33 1036.10 1035.55 1034.93 1034.44 1033.69 1032.96 1032.11 1031.24 1030.40 1029.73 1028.71 1027.84 1027.42 1026.27 1025.64 1024.88 1024.51 1024.31 1023.77 1023.19 1022.63 1021.96 1021.76 1021.17 1020.63 1020.39 1020.16 1020.27 1020.48 1020.83 1020.83 1021.23 1021.72 1022.03 1022.22 1022.38 1022.50 1022.45 1022.64 1022.68 1022.92
1037.24 1036.89 1036.47 1035.90 1035.25 1034.66 1034.05 1033.39 1032.52 1031.61 1030.82 1030.05 1029.04 1028.30 1027.53 1026.79 1025.86 1025.12 1024.64 1024.49 1024.08 1023.71 1023.29 1022.73 1022.24 1021.84 1021.39 1020.91 1020.47 1020.47 1020.47 1020.62 1020.98 1021.28 1021.38 1021.70 1022.02 1021.97 1021.98 1022.10 1022.36 1022.57 1022.65
1037.75 1037.25 1036.74 1036.24 1035.65 1035.03 1034.33 1033.61 1032.93 1032.02 1031.09 1030.30 1029.47 1028.74 1027.82 1027.04 1025.92 1025.26 1024.89 1024.63 1024.40 1024.18 1023.89 1023.31 1022.74 1022.42 1021.82 1021.27 1020.83 1020.67 1020.67 1020.94 1020.96 1020.96 1021.54 1021.69 1021.63 1021.75 1021.68 1021.93 1022.17 1022.49 1022.37
1038.01 1037.44 1036.94 1036.38 1035.86 1035.22 1034.52 1033.85 1033.14 1032.38 1031.51 1030.70 1029.91 1029.15 1028.30 1027.37 1026.30 1025.45 1024.97 1024.87 1024.75 1024.37 1024.08 1023.78 1023.32 1022.75 1022.12 1021.50 1021.15 1020.99 1021.22 1021.08 1021.08 1021.04 1021.12 1021.41 1021.79 1021.56 1021.56 1021.97 1022.05 1022.26 1022.65
1038.08 1037.56 1037.09 1036.61 1035.99 1035.32 1034.62 1033.91 1033.19 1032.44 1031.68 1030.89 1030.14 1029.29 1028.58 1027.79 1026.69 1025.54 1025.03 1024.90 1024.72 1024.53 1024.13 1023.98 1023.48 1022.81 1022.12 1021.61 1021.27 1021.37 1021.49 1021.24 1021.19 1021.30 1021.58 1021.56 1021.24 1021.25 1021.81 1022.17 1022.30 1022.40 1022.63
1037.90 1037.52 1037.11 1036.61 1036.07 1035.41 1034.79 1033.99 1033.23 1032.56 1031.78 1031.11 1030.27 1029.62 1028.76 1028.02 1027.21 1025.97 1025.26 1025.02 1024.72 1024.60 1024.46 1024.16 1023.62 1022.86 1022.09 1021.66 1021.50 1021.68 1021.50 1021.39 1021.61 1021.92 1022.05 1022.07 1022.10 1022.16 1022.05 1022.37 1022.43 1022.33 1022.59
1037.87 1037.52 1037.08 1036.53 1035.97 1035.30 1034.72 1034.12 1033.32 1032.52 1031.76 1031.18 1030.51 1029.78 1029.01 1028.34 1027.77 1026.54 1025.60 1025.15 1024.93 1024.72 1024.32 1024.15 1023.74 1022.95 1022.41 1021.97 1021.81 1021.80 1021.87 1021.86 1021.93 1022.34 1022.38 1022.66 1022.92 1022.83 1022.77 1022.76 1022.78 1022.50 1022.66
1037.79 1037.49 1037.10 1036.56 1036.00 1035.33 1034.80 1034.19 1033.57 1032.82 1032.07 1031.33 1030.63 1030.00 1029.45 1028.85 1028.14 1027.18 1026.24 1025.58 1025.00 1024.75 1024.44 1024.20 1023.91 1023.33 1022.92 1022.40 1022.03 1021.85 1021.58 1021.83 1022.15 1022.52 1022.68 1023.22 1023.18 1023.16 1023.38 1023.38 1023.49 1023.33 1023.18
1037.96 1037.57 1037.11 1036.67 1036.24 1035.71 1035.08 1034.52 1033.89 1033.33 1032.60 1031.88 1031.16 1030.43 1029.76 1029.14 1028.51 1027.67 1027.01 1026.20 1025.60 1025.08 1024.76 1024.22 1023.84 1023.57 1023.24 1022.91 1022.27 1021.98 1021.90 1022.21 1022.48 1022.80 1023.05 1023.33 1023.44 1023.59 1024.00 1023.86 1023.85 1023.94 1023.93
1038.06 1037.62 1037.13 1036.79 1036.48 1036.05 1035.54 1034.96 1034.33 1033.72 1032.99 1032.19 1031.46 1030.78 1030.06 1029.39 1028.83 1028.18 1027.28 1026.48 1025.85 1025.27 1024.59 1024.46 1024.19 1023.90 1023.57 1023.24 1022.80 1022.52 1022.50 1022.58 1022.65 1022.86 1023.15 1023.58 1023.77 1023.91 1024.03 1024.07 1024.17 1023.95 1024.12
1038.10 1037.62 1037.35 1037.03 1036.62 1036.18 1035.84 1035.26 1034.49 1033.97 1032.98 1032.08 1031.57 1030.99 1030.36 1029.67 1029.13 1028.22 1027.48 1026.77 1026.23 1025.60 1024.99 1024.64 1024.40 1024.26 1023.98 1023.72 1023.46 1023.18 1023.04 1022.88 1022.90 1023.09 1023.31 1023.52 1023.87 1024.12 1024.20 1024.20 1024.16 1024.13 1024.20
1038.16 1037.57 1037.42 1037.21 1036.87 1036.41 1036.01 1035.45 1034.90 1033.93 1033.16 1032.42 1031.69 1031.00 1030.53 1029.99 1029.20 1028.41 1027.79 1027.05 1026.46 1025.75 1025.24 1025.15 1024.69 1024.47 1024.49 1024.36 1024.07 1023.80 1023.46 1023.22 1023.18 1023.32 1023.59 1023.55 1023.79 1024.13 1024.10 1024.19 1024.27 1024.40 1024.41
1038.44 1037.81 1037.50 1037.27 1036.94 1036.60 1036.16 1035.74 1035.05 1034.05 1033.65 1032.99 1032.24 1031.50 1030.76 1029.92 1029.29 1028.68 1027.97 1027.22 1026.57 1026.07 1025.96 1025.70 1025.16 1024.59 1024.53 1024.50 1024.35 1024.05 1023.64 1023.62 1023.33 1023.28 1023.62 1023.58 1024.01 1024.10 1024.20 1024.21 1024.75 1024.68 1024.66
1038.19 1037.74 1037.44 1037.23 1037.05 1036.68 1036.31 1035.93 1035.58 1035.05 1034.23 1033.34 1032.83 1032.08 1031.31 1030.64 1029.80 1029.09 1028.25 1027.79 1027.79 1027.50 1027.23 1026.60 1025.87 1025.26 1024.62 1024.60 1024.46 1024.28 1023.78 1023.64 1023.45 1023.52 1023.49 1023.58 1023.96 1024.01 1024.28 1024.50 1024.71 1024.54 1024.92
1037.98 1037.55 1037.23 1037.06 1036.87 1036.58 1036.29 1035.87 1035.45 1035.04 1034.65 1033.98 1033.08 1032.16 1032.00 1031.04 1030.19 1029.52 1029.12 1029.19 1028.98 1028.53 1027.94 1027.22 1026.51 1025.83 1025.26 1024.86 1024.33 1024.26 1024.18 1023.78 1023.46 1023.46 1023.35 1023.74 1024.02 1024.00 1024.25 1024.48 1024.63 1024.87 1025.13
1037.55 1037.16 1037.00 1036.82 1036.63 1036.46 1036.17 1035.88 1035.39 1035.02 1034.58 1033.99 1033.32 1032.70 1031.82 1031.39 1030.66 1030.21 1029.86 1029.62 1029.32 1028.90 1028.36 1027.75 1027.05 1026.30 1025.66 1025.22 1024.95 1024.49 1024.17 1024.00 1023.69 1023.54 1023.44 1023.72 1023.90 1024.13 1024.19 1024.25 1024.41 1024.77 1025.09
1037.19 1036.87 1036.76 1036.74 1036.63 1036.38 1036.11 1035.83 1035.42 1035.07 1034.56 1033.91 1033.14 1032.54 1031.53 1031.15 1031.01 1030.58 1030.14 1029.78 1029.47 1029.02 1028.61 1028.14 1027.65 1027.01 1026.39 1025.73 1025.15 1024.76 1024.54 1024.15 1023.83 1023.54 1023.40 1023.66 1023.80 1023.94 1023.95 1024.07 1024.35 1024.64 1025.11
1036.64 1036.45 1036.39 1036.45 1036.16 1036.05 1035.77 1035.45 1035.19 1034.89 1034.29 1033.70 1032.78 1032.14 1031.58 1031.31 1030.83 1030.56 1030.16 1029.68 1029.29 1028.96 1028.59 1028.32 1027.79 1027.22 1026.66 1026.26 1025.82 1025.27 1024.82 1024.39 1024.02 1023.80 1023.58 1023.47 1023.47 1023.73 1023.78 1024.03 1024.28 1024.57 1024.96
1036.10 1036.05 1035.83 1035.75 1035.62 1035.48 1035.34 1035.00 1034.76 1034.38 1033.84 1033.19 1032.56 1031.90 1031.35 1031.00 1030.52 1030.08 1029.70 1029.27 1028.82 1028.46 1027.97 1027.90 1027.62 1027.15 1026.50 1026.09 1025.80 1025.57 1025.15 1024.51 1024.16 1024.05 1023.57 1023.29 1023.21 1023.45 1023.68 1023.96 1024.13 1024.48 1024.81
1035.33 1035.34 1035.33 1035.13 1035.10 1035.04 1034.83 1034.40 1033.97 1033.54 1033.07 1032.52 1031.98 1031.39 1030.86 1030.35 1029.93 1029.46 1029.06 1028.65 1028.25 1027.85 1027.52 1027.28 1027.05 1026.80 1026.27 1025.77 1025.43 1025.21 1025.00 1024.57 1024.22 1023.81 1023.35 1022.98 1023.01 1023.27 1023.53 1023.84 1023.97 1024.31 1024.65
1034.65 1034.70 1034.64 1034.38 1034.25 1034.10 1034.00 1033.56 1033.15 1032.73 1032.31 1031.80 1031.23 1030.73 1030.17 1029.68 1029.20 1028.64 1028.31 1028.00 1027.68 1027.26 1026.88 1026.50 1026.18 1025.97 1025.72 1025.34 1024.99 1024.82 1024.63 1024.19 1024.04 1023.73 1023.38 1022.92 1022.78 1022.97 1023.23 1023.55 1023.77 1024.12 1024.57
1033.81 1033.74 1033.54 1033.31 1033.31 1033.22 1033.07 1032.65 1032.17 1031.78 1031.42 1030.87 1030.44 1029.99 1029.52 1029.03 1028.53 1027.97 1027.41 1027.14 1026.94 1026.49 1025.99 1025.70 1025.37 1025.15 1024.97 1024.70 1024.39 1024.29 1024.21 1023.85 1023.58 1023.47 1023.43 1023.15 1022.73 1022.77 1022.98 1023.29 1023.61 1023.96 1024.39
Wind_Speed
12 12 12 11 12 11 11 12 12 12 12 12 12 12 13 13 12 11 10 9 6 6 6 3 3 0 1 2 2 1 1 1 1 1 1 1 2 4 3 3 1 0 1
12 12 12 12 13 13 13 13 12 13 12 12 11 11 12 12 12 12 11 10 9 7 6 6 4 1 2 3 2 2 2 2 2 3 1 1 1 1 2 3 2 0 1
12 12 12 14 14 13 13 13 14 12 12 12 11 11 10 11 11 11 10 11 10 9 8 6 5 3 1 1 2 2 2 2 2 2 2 1 1 1 1 1 2 2 2
11 12 13 13 13 12 11 11 12 12 11 12 11 9 9 7 8 9 10 11 10 9 9 8 7 6 4 2 2 3 3 3 2 2 2 2 1 2 1 2 2 2 2
10 9 8 9 9 8 10 11 11 10 10 11 10 10 9 7 8 12 9 10 9 10 9 8 7 7 9 5 1 2 3 2 2 2 2 1 2 2 2 2 1 0 1
7 6 7 9 9 9 9 10 10 10 10 11 11 11 11 8 16 18 14 9 9 9 9 8 7 7 8 8 6 3 4 3 3 1 1 1 2 2 2 2 1 0 0
5 6 7 8 9 10 10 9 9 10 11 10 11 11 12 11 20 18 16 7 8 9 9 8 7 6 6 6 7 4 2 3 2 3 2 2 1 2 3 2 2 2 1
6 6 6 7 7 9 9 10 10 8 9 9 10 11 11 10 20 18 16 6 6 6 6 8 7 8 9 5 5 4 3 4 3 3 2 1 2 2 2 1 2 3 2
6 6 6 7 9 9 9 9 9 10 9 9 9 11 11 10 20 19 13 5 5 6 7 6 7 8 15 12 5 3 2 3 4 8 7 6 4 3 4 3 1 2 1
7 7 6 7 8 9 9 9 9 8 9 9 10 9 10 9 17 18 15 6 5 5 4 5 10 12 15 15 4 2 2 0 2 3 3 6 7 6 6 2 2 2 1
6 7 7 8 9 8 9 9 8 9 9 8 9 9 8 8 11 20 20 7 6 6 5 5 5 15 16 15 12 3 2 2 5 3 3 4 3 4 4 4 4 1 2
7 8 8 7 8 8 10 10 10 9 10 9 9 8 7 9 15 16 19 16 16 7 6 5 4 13 13 14 9 14 5 5 3 3 3 2 2 3 3 4 5 6 6
7 6 7 7 9 9 9 10 8 9 8 9 9 8 8 8 8 19 19 20 18 10 6 10 13 12 12 8 11 11 3 2 2 1 2 1 2 3 2 2 5 6 7
5 5 6 7 8 8 7 7 7 7 7 8 8 9 9 8 8 8 9 9 13 11 14 6 8 7 7 5 5 6 3 1 1 1 2 2 2 2 1 1 0 1 1
4 4 5 5 6 6 7 7 7 7 9 8 7 7 8 8 9 17 15 10 9 12 13 8 4 3 4 4 4 4 3 2 1 1 2 2 2 2 1 0 1 1 2
3 3 4 4 4 5 6 6 10 12 15 15 15 12 7 16 20 20 20 20 19 20 8 7 7 4 3 3 3 4 3 3 1 1 1 2 2 2 2 1 1 0 2
3 3 3 4 4 5 5 6 8 9 13 13 16 17 16 16 18 19 19 20 19 16 5 6 8 6 3 2 3 2 2 4 2 0 1 2 2 2 2 2 1 1 1
4 5 2 3 3 4 4 5 4 5 9 8 11 14 16 18 17 17 17 15 8 8 6 7 6 7 6 3 2 2 2 2 2 0 1 1 2 2 2 2 3 2 1
3 3 2 3 3 4 4 4 4 4 5 7 8 9 8 17 16 14 13 3 4 5 6 6 6 6 6 5 3 2 3 3 1 1 0 1 2 2 2 2 3 3 2
4 5 4 3 3 3 3 3 4 4 5 5 6 7 8 4 3 3 2 2 5 5 6 6 7 7 6 4 5 3 2 3 2 1 0 1 2 3 3 3 3 3 2
3 3 4 3 3 3 3 4 4 4 5 6 7 6 19 8 7 7 6 5 5 6 6 6 6 6 7 6 5 4 3 3 3 3 1 1 2 2 3 2 3 4 4
3 3 2 4 3 3 4 3 4 4 5 6 7 7 17 5 6 6 7 6 6 6 5 5 6 6 6 6 6 5 4 4 3 3 3 2 2 2 2 2 3 3 3
4 4 3 3 3 4 4 4 4 4 5 6 6 6 6 6 5 6 7 7 6 6 6 4 5 6 6 5 6 5 5 4 3 3 3 2 2 2 2 2 3 3 3
4 4 4 4 3 4 4 5 5 6 6 6 6 6 6 6 7 7 7 7 6 6 6 5 5 7 7 7 5 5 5 6 5 4 5 3 3 3 3 2 3 3 4
4 4 5 5 4 5 5 5 5 6 6 6 6 6 6 5 6 7 7 6 6 6 7 7 6 7 9 11 9 8 8 10 6 5 4 4 3 4 3 2 3 3 4
5 6 5 4 5 5 6 6 6 5 6 6 5 6 7 7 7 7 7 6 6 7 7 6 7 9 9 9 9 9 8 10 8 6 4 3 3 2 3 3 5 3 5
Wind_Direction
4 7 12 10 11 7 7 359 350 340 349 353 355 354 354 2 1 1 350 349 355 5 351 317 306 168 174 166 157 158 192 177 175 119 101 147 167 165 159 147 146 157 336
4 8 11 10 9 10 4 357 355 352 349 346 347 357 358 353 3 3 358 349 350 357 358 346 4 357 176 155 147 166 192 168 133 169 150 158 200 149 185 171 183 160 252
5 9 9 9 7 3 355 350 350 351 352 353 350 349 357 348 351 356 2 355 359 349 353 357 350 348 305 196 175 180 142 123 122 130 130 171 204 130 155 185 223 247 240
4 8 5 3 360 352 345 345 346 344 345 348 349 341 339 339 342 349 359 358 358 356 350 352 359 356 352 282 210 205 156 149 158 110 131 190 193 140 195 211 228 217 266
357 1 348 342 345 342 347 344 341 344 342 337 339 351 341 347 354 357 3 356 359 355 349 356 346 357 351 334 247 197 173 154 119 135 165 174 192 183 197 150 227 81 271
338 341 336 345 344 345 342 338 337 340 342 340 344 343 346 344 348 358 0 353 357 4 355 347 347 350 351 357 352 222 190 160 166 172 159 199 218 208 164 168 157 205 116
330 333 339 341 344 341 335 334 338 335 334 337 337 338 338 336 352 351 354 351 353 11 356 347 355 345 349 352 356 1 147 179 167 150 192 204 204 212 144 162 192 201 147
338 333 329 332 334 334 333 334 332 330 331 329 328 329 330 330 345 352 348 349 348 350 353 345 346 347 345 351 2 25 56 61 56 79 77 343 254 252 159 190 174 125 98
337 330 327 329 329 325 328 325 325 328 327 326 328 326 329 328 342 351 355 342 350 340 348 345 349 349 343 359 22 20 44 46 34 84 65 39 26 111 150 124 108 154 143
337 332 322 324 325 321 314 320 321 317 317 325 324 322 314 324 342 354 359 346 346 345 337 344 352 357 352 354 4 347 336 22 100 54 22 42 52 63 65 4 172 131 102
329 329 331 332 328 321 329 325 322 325 325 329 326 325 324 341 344 351 358 357 344 338 335 342 341 349 350 351 9 329 258 143 120 108 88 69 63 62 51 43 25 54 111
342 338 334 334 335 340 335 336 338 338 339 338 336 337 339 341 340 343 350 353 355 354 342 325 316 347 346 347 349 345 351 109 113 116 102 87 69 63 50 49 53 60 49
339 326 332 336 345 341 345 344 343 347 348 342 341 334 334 336 338 340 341 348 348 346 335 338 336 342 345 340 333 347 106 122 134 145 133 109 76 89 111 82 80 76 66
319 332 346 349 344 345 344 345 339 343 337 330 332 331 324 328 333 326 325 330 336 335 335 333 331 337 359 5 344 3 12 51 148 145 133 109 114 110 101 19 74 98 90
317 338 344 344 339 341 344 334 339 333 320 333 325 324 326 326 319 320 323 324 323 318 327 329 331 355 360 4 359 357 12 35 48 95 139 138 139 148 130 40 65 55 78
329 358 344 332 337 339 334 328 335 339 341 339 335 333 328 322 319 319 318 313 311 314 316 322 308 316 334 341 355 349 357 3 17 140 170 146 151 185 148 103 50 266 130
270 316 321 324 324 335 333 334 332 335 344 347 344 340 330 325 331 327 321 314 312 313 320 315 316 293 283 298 305 311 340 337 323 145 216 148 159 139 146 127 173 177 135
256 274 281 300 295 297 307 310 309 319 327 327 338 337 341 336 331 328 329 345 345 341 328 313 320 320 286 242 246 273 297 318 352 309 148 153 189 150 153 169 194 176 171
257 269 261 275 272 279 296 299 299 303 305 304 315 329 324 326 331 339 347 351 323 323 318 313 311 328 319 279 234 230 256 292 313 287 106 183 203 169 182 194 182 185 180
247 253 262 279 294 297 293 293 307 301 302 302 308 308 310 299 327 324 315 312 312 307 312 321 334 334 329 318 290 276 251 259 291 265 186 186 198 201 207 193 179 166 180
241 252 238 273 273 274 274 284 281 288 293 298 295 300 321 352 323 307 300 298 294 300 300 305 313 311 323 329 299 270 268 259 242 295 231 191 175 206 208 194 186 166 147
221 237 222 239 254 277 270 263 271 272 279 285 296 298 322 310 296 287 286 283 276 275 277 279 290 292 297 307 320 307 282 276 267 252 277 201 172 208 185 181 181 168 152
214 238 250 265 248 265 272 264 269 262 272 275 279 289 296 286 276 280 275 274 273 275 279 256 271 282 284 284 293 297 283 277 281 260 265 254 177 178 182 189 173 161 162
208 227 239 254 250 257 256 267 267 256 260 271 278 280 278 282 280 282 278 271 269 269 267 267 254 256 276 275 274 279 281 279 284 295 299 237 198 169 175 186 179 178 160
211 227 231 242 251 257 259 257 259 264 266 266 276 276 278 267 274 275 273 267 266 265 267 266 258 251 258 267 267 269 277 284 279 291 305 309 231 189 176 187 165 159 140
221 227 236 232 241 243 246 259 261 256 262 270 265 272 276 280 278 281 278 271 264 267 266 256 257 253 254 263 262 261 256 270 271 258 271 286 272 207 173 192 180 161 160